Weather History for KOOA - June, 2013

Change the Weather History Date:

Saturday, June 29, 2013

  Actual Average (KOTM) Record (KOTM)
Temperature  
Mean Temperature 70 °F 74 °F  
Max Temperature 76 °F 85 °F 107 °F (1934)
Min Temperature 63 °F 64 °F 49 °F (1923)
Degree Days  
Heating Degree Days 0 0  
Month to date heating degree days 19  
Since 1 June heating degree days 19  
Since 1 July heating degree days 6315  
Cooling Degree Days 4 9  
Month to date cooling degree days 190  
Year to date cooling degree days 254  
Since 1 June cooling degree days 190  
Growing Degree Days 20 (Base 50)    
Moisture  
Dew Point 59 °F    
Average Humidity 74    
Maximum Humidity 88    
Minimum Humidity 54    
Precipitation  
Precipitation 0.15 in 0.16 in 1.85 in (1906)
Month to date precipitation 4.93  
Year to date precipitation 17.46  
Sea Level Pressure  
Sea Level Pressure 29.78 in    
Wind  
Wind Speed 11 mph (NNW)    
Max Wind Speed 22 mph    
Max Gust Speed 29 mph    
Visibility 10 miles    
Events Rain    
T = Trace of Precipitation, MM = Missing Value Source: NWS Daily Summary

Daily Weather History Graph

Daily Weather History Graph

Search for Another Location

Airport or City:

Trip Planner

Search our weather history database for the weather conditions in past years. The results will help you decide how hot, cold, wet, or windy it might be!

Date:

Astronomy

Jun. 29, 2013 Rise Set
Actual Time 5:40 AM CDT 8:46 PM CDT
Civil Twilight 5:06 AM CDT 9:20 PM CDT
Nautical Twilight 4:23 AM CDT 10:03 PM CDT
Astronomical Twilight 3:32 AM CDT 10:54 PM CDT
Moon 12:11 AM CDT (6/29) 12:56 PM CDT (6/29)
Length of Visible Light 16h 14m
Length of Day
15h 06m
Waning Gibbous, 55% of the Moon is Illuminated
Jun 29
Waning Gibbous
Jun 29
Last Quarter
Jul 8
New
Jul 15
First Quarter
Jul 22
Full

Hourly Weather History & Observations

Time (CDT) Temp. Dew Point Humidity Pressure Visibility Wind Dir Wind Speed Gust Speed Precip Events Conditions
12:15 AM 68.0 °F 57.2 °F 68% 29.77 in 10.0 mi NW 8.1 mph - N/A   Clear
12:35 AM 66.6 °F 57.2 °F 72% 29.76 in 10.0 mi WNW 6.9 mph - N/A   Clear
12:55 AM 66.7 °F 57.2 °F 71% 29.75 in 10.0 mi NW 8.1 mph - N/A   Clear
1:15 AM 66.2 °F 57.4 °F 73% 29.75 in 10.0 mi WNW 5.8 mph - N/A   Clear
1:35 AM 65.8 °F 57.4 °F 74% 29.75 in 10.0 mi NW 9.2 mph - N/A   Clear
1:55 AM 67.5 °F 57.2 °F 70% 29.75 in 10.0 mi NW 9.2 mph - N/A   Clear
2:15 AM 67.1 °F 57.2 °F 70% 29.75 in 10.0 mi NW 8.1 mph - N/A   Clear
2:35 AM 66.2 °F 57.4 °F 73% 29.74 in 10.0 mi NW 8.1 mph - N/A   Clear
2:55 AM 65.7 °F 57.4 °F 75% 29.74 in 10.0 mi WNW 9.2 mph - N/A   Clear
3:15 AM 64.9 °F 57.4 °F 76% 29.74 in 10.0 mi WNW 10.4 mph - N/A   Clear
3:35 AM 65.5 °F 57.4 °F 75% 29.74 in 10.0 mi NW 13.8 mph 17.3 mph N/A   Clear
3:55 AM 65.7 °F 57.6 °F 75% 29.73 in 10.0 mi NW 11.5 mph - N/A   Clear
4:15 AM 64.9 °F 57.7 °F 77% 29.74 in 10.0 mi NNW 12.7 mph - N/A   Clear
4:35 AM 64.6 °F 57.7 °F 78% 29.74 in 10.0 mi NW 10.4 mph - N/A   Clear
4:55 AM 64.4 °F 57.9 °F 79% 29.75 in 10.0 mi NW 10.4 mph - N/A   Clear
5:15 AM 63.5 °F 57.6 °F 81% 29.75 in 10.0 mi NW 9.2 mph - N/A   Clear
5:35 AM 63.5 °F 57.7 °F 81% 29.75 in 10.0 mi NW 9.2 mph - N/A   Clear
5:55 AM 63.5 °F 57.7 °F 81% 29.76 in 10.0 mi NW 8.1 mph - N/A   Clear
6:15 AM 63.5 °F 57.7 °F 81% 29.76 in 10.0 mi NW 8.1 mph - N/A   Clear
6:35 AM 64.4 °F 57.9 °F 79% 29.76 in 10.0 mi NW 11.5 mph - N/A   Clear
6:55 AM 65.3 °F 57.7 °F 76% 29.76 in 10.0 mi NW 11.5 mph - N/A   Clear
7:15 AM 66.2 °F 57.9 °F 75% 29.76 in 10.0 mi NW 10.4 mph - N/A   Clear
7:35 AM 66.7 °F 57.7 °F 73% 29.76 in 10.0 mi NW 12.7 mph - N/A   Clear
7:55 AM 68.0 °F 58.1 °F 71% 29.76 in 10.0 mi NNW 13.8 mph - N/A   Clear
8:15 AM 68.4 °F 58.6 °F 71% 29.76 in 10.0 mi NNW 16.1 mph - N/A   Clear
8:35 AM 69.1 °F 59.0 °F 70% 29.76 in 10.0 mi NW 15.0 mph 21.9 mph N/A   Clear
8:55 AM 69.3 °F 59.4 °F 71% 29.77 in 10.0 mi NNW 12.7 mph - N/A   Clear
9:15 AM 70.9 °F 59.5 °F 67% 29.77 in 10.0 mi NNW 16.1 mph 19.6 mph N/A   Scattered Clouds
9:35 AM 71.6 °F 59.4 °F 65% 29.76 in 10.0 mi NNW 13.8 mph 23.0 mph N/A   Scattered Clouds
9:55 AM 71.8 °F 59.0 °F 64% 29.76 in 10.0 mi NNW 15.0 mph - N/A   Mostly Cloudy
10:15 AM 71.4 °F 59.0 °F 65% 29.75 in 10.0 mi NNW 13.8 mph 20.7 mph N/A   Mostly Cloudy
10:35 AM 73.4 °F 59.2 °F 61% 29.75 in 10.0 mi NW 18.4 mph 24.2 mph N/A   Mostly Cloudy
10:55 AM 72.7 °F 60.1 °F 64% 29.74 in 10.0 mi NNW 16.1 mph 24.2 mph N/A Rain Light Rain
11:15 AM 74.7 °F 59.4 °F 59% 29.73 in 10.0 mi NNW 15.0 mph - N/A   Scattered Clouds
11:35 AM 73.2 °F 60.1 °F 63% 29.74 in 5.0 mi North 18.4 mph 28.8 mph 0.02 in Rain Heavy Rain
11:55 AM 69.6 °F 62.8 °F 79% 29.75 in 10.0 mi North 20.7 mph 26.5 mph 0.02 in Rain Light Rain
12:15 PM 66.9 °F 60.8 °F 81% 29.76 in 7.0 mi NNW 19.6 mph 28.8 mph N/A Rain Light Rain
12:35 PM 65.5 °F 61.2 °F 86% 29.76 in 10.0 mi NNW 13.8 mph - N/A Rain Light Rain
12:55 PM 66.9 °F 61.2 °F 82% 29.75 in 10.0 mi NNW 16.1 mph 21.9 mph N/A   Scattered Clouds
1:15 PM 68.0 °F 60.8 °F 78% 29.75 in 10.0 mi NNW 13.8 mph 23.0 mph N/A   Mostly Cloudy
1:35 PM 69.4 °F 59.7 °F 71% 29.75 in 10.0 mi North 17.3 mph - N/A   Scattered Clouds
1:55 PM 72.1 °F 59.5 °F 64% 29.75 in 10.0 mi North 12.7 mph - N/A   Clear
2:15 PM 73.6 °F 59.0 °F 60% 29.75 in 10.0 mi North 17.3 mph 24.2 mph N/A   Scattered Clouds
2:35 PM 73.2 °F 57.7 °F 58% 29.75 in 10.0 mi North 21.9 mph 28.8 mph N/A   Mostly Cloudy
2:55 PM 74.3 °F 58.5 °F 58% 29.76 in 10.0 mi North 16.1 mph 25.3 mph N/A   Mostly Cloudy
3:15 PM 73.6 °F 59.2 °F 61% 29.76 in 10.0 mi NNW 18.4 mph 23.0 mph N/A   Mostly Cloudy
3:35 PM 74.1 °F 59.2 °F 59% 29.77 in 10.0 mi North 15.0 mph - N/A   Scattered Clouds
3:55 PM 76.5 °F 58.8 °F 54% 29.76 in 10.0 mi North 16.1 mph 25.3 mph N/A   Scattered Clouds
4:15 PM 71.2 °F 59.2 °F 66% 29.78 in 10.0 mi NNE 20.7 mph 28.8 mph N/A   Mostly Cloudy
4:35 PM 64.6 °F 60.8 °F 88% 29.79 in 5.0 mi NNE 10.4 mph - 0.12 in Rain Light Rain
4:55 PM 66.4 °F 61.5 °F 84% 29.79 in 10.0 mi NNE 6.9 mph - 0.12 in Rain Light Rain
5:15 PM 66.9 °F 61.0 °F 81% 29.79 in 10.0 mi NNE 8.1 mph - N/A   Overcast
5:35 PM 67.1 °F 62.1 °F 84% 29.80 in 10.0 mi NNE 9.2 mph - 0.01 in Rain Light Rain
5:55 PM 69.4 °F 62.8 °F 79% 29.79 in 10.0 mi North 9.2 mph - 0.01 in   Scattered Clouds
6:15 PM 69.4 °F 61.0 °F 74% 29.80 in 10.0 mi North 15.0 mph 19.6 mph N/A   Scattered Clouds
6:35 PM 69.8 °F 60.4 °F 72% 29.80 in 10.0 mi North 12.7 mph 18.4 mph N/A   Mostly Cloudy
6:55 PM 69.8 °F 59.4 °F 69% 29.81 in 10.0 mi NNE 17.3 mph 21.9 mph N/A   Overcast
7:15 PM 68.7 °F 58.6 °F 70% 29.82 in 10.0 mi NNE 17.3 mph - N/A   Overcast
7:35 PM 67.8 °F 58.3 °F 71% 29.82 in 10.0 mi North 16.1 mph 23.0 mph N/A   Overcast
7:55 PM 67.1 °F 58.5 °F 74% 29.83 in 10.0 mi North 12.7 mph - N/A   Overcast
8:15 PM 66.0 °F 58.6 °F 77% 29.83 in 10.0 mi North 11.5 mph 17.3 mph N/A   Mostly Cloudy
8:35 PM 64.8 °F 58.3 °F 79% 29.84 in 10.0 mi North 13.8 mph - N/A   Clear
8:55 PM 64.0 °F 58.1 °F 81% 29.84 in 10.0 mi North 11.5 mph - N/A   Clear
9:15 PM 63.9 °F 58.1 °F 81% 29.85 in 10.0 mi North 9.2 mph - N/A   Scattered Clouds
9:35 PM 63.7 °F 58.1 °F 82% 29.86 in 10.0 mi North 9.2 mph - N/A   Mostly Cloudy
9:55 PM 63.9 °F 58.5 °F 83% 29.86 in 10.0 mi North 11.5 mph - N/A   Overcast
10:15 PM 63.9 °F 58.5 °F 83% 29.87 in 10.0 mi North 11.5 mph - N/A Rain Light Rain
10:35 PM 63.7 °F 58.5 °F 83% 29.87 in 10.0 mi North 10.4 mph - N/A   Overcast
10:55 PM 63.9 °F 58.3 °F 82% 29.87 in 10.0 mi North 9.2 mph - N/A   Overcast
11:15 PM 63.7 °F 58.1 °F 82% 29.87 in 10.0 mi North 8.1 mph - N/A   Overcast
11:35 PM 63.5 °F 58.1 °F 83% 29.88 in 10.0 mi North 9.2 mph - N/A   Overcast
11:55 PM 63.5 °F 57.9 °F 82% 29.88 in 10.0 mi North 9.2 mph - N/A   Overcast